Weather in Nove

Ukraine / Zaporizhia Region     46°47′01″N   35°16′39″E
temp.,
°C
wind,
m/s
gust,
m/s
humid.,
%
clouds,
%
prec.,
mm/h
press.,
hPa
HPBL,
m
23 october, sat
sat2300:00+12sw378095 0.0 1017127
03:00+12sw3787100 0.0 1017130
06:00+12sw3689100 0.0 1016120
09:00+14sw4776100 0.0 1017260
12:00+18w5653100 0.0 1017844
15:00+16n4553100 0.0 1017572
18:00+13nnw3575100 0.1 1019272
21:00+13nw2575100 0.1 1020248
24 october, sun
sun2400:00+11nw377496 0.0 1021160
03:00+9n367159 0.0 102194
06:00+8n366494 0.0 1022103
09:00+10n3551100 0.0 1022226
12:00+12n6638100 0.0 10221066
15:00+11nnw4638100 0.0 10221629
18:00+9nw344665 0.0 102356
21:00+7nw495723 0.0 1025239
25 october, mon
mon2500:00+6nnw511745 0.0 1026313
03:00+4nw510735 0.0 1028243
06:00+3nw367194 0.0 102997
09:00+7n675723 0.0 1031737
12:00+9n55405 0.0 10311365
15:00+10n55330 0.0 10311456
18:00+6n34400 0.0 103244
21:00+4ne33430 0.0 103326
26 october, tue
tue2600:00+3ne33470 0.0 103330
03:00+2ene33500 0.0 103326
06:00+1ene33520 0.0 103330
09:00+5e35410 0.0 1033200
12:00+10ese45370 0.0 10321062
15:00+11ese55370 0.0 10301074
18:00+6ese36520 0.0 103091
21:00+4e36610 0.0 103095
27 october, wed
wed2700:00+3ene46630 0.0 102993
03:00+3e45660 0.0 102872
06:00+3ene34740 0.0 102746
09:00+7e46640 0.0 1027205
12:00+12ese44430 0.0 1025938
15:00+13se32395 0.0 1024995
18:00+7se3465100 0.0 102447
21:00+7s1173100 0.0 102410